Find Starlink 36134

NORAD ID: 66863 Int'l Des: 2025-281 Owner: SPXS Country: US Constellation: starlink operational
LEOCIRCULAR

現在のビュー

3D地球を読み込み中...

Starlink 36134について

説明を読み込み中...

次回通過

Passes for default location (London). Set your location on the main map for personalized predictions.

高度履歴

Loading altitude history...

軌道要素

1 66863U 25281R 26146.38939489 .00030900 00000-0 11273-2 0 9997
2 66863 43.0017 264.2320 0001532 244.8536 115.2157 15.27591267 28072
Epoch: May 26, 2026 • Age: 13 hours

現在のステータス

高度 485.9 km
速度 7.63 km/s
衛星直下点 37.66°N, 99.49°E
打ち上げ日 Dec 2, 2025
運用期間 0.4 years
タイプ internet

技術仕様

分類 Payload
質量 575.00 kg
乾燥質量 530.00 kg
総質量 575.00 kg
長さ 0.30 m
直径 4.10 m
スパン 29.00 m
形状 Box + pan
製造者 SPXS
バスタイプ Starlink V2MO
フェーズステータス In Orbit
所有者/国 SPXS/US

Most Searched